When you browse on this site, cookies collect data to enhance your experience and personalize the content and advertising you see.
Visit our Privacy Policy to learn more. By continuing to use the site, you agree to this use of cookies and data.
  • In Switzerland
  • List of Countries
  • For 7 days
  • Water Temperature
  • Satellite Maps
  • Weather Map
  • Weather Widgets
  • user-avatar
    Login

    Hourly Weather Mochudi

    Today, 21 November, Wednesday

    Time Temperature Precipitation Wind Pressure Humidity
    00:00 +26°C° 0.1 mm 3 mps 678 mmHg 53%
    01:00 +26°C° 0.1 mm 3 mps 678 mmHg 53%
    02:00 +26°C° 0 mm 2 mps 678 mmHg 50%
    03:00 +26°C° 0.1 mm 2 mps 678 mmHg 51%
    04:00 +25°C° 0.1 mm 1 mps 678 mmHg 53%
    05:00 +25°C° 0.1 mm 1 mps 678 mmHg 55%
    06:00 +27°C° 0 mm 1 mps 678 mmHg 49%
    07:00 +28°C° 0 mm 1 mps 679 mmHg 43%
    08:00 +30°C° 0 mm 1 mps 679 mmHg 37%
    09:00 +31°C° 0 mm 2 mps 679 mmHg 32%
    10:00 +34°C° 0 mm 2 mps 679 mmHg 27%
    11:00 +36°C° 0 mm 3 mps 679 mmHg 21%
    12:00 +37°C° 0 mm 4 mps 679 mmHg 18%
    13:00 +40°C° 0 mm 4 mps 679 mmHg 14%
    14:00 +41°C° 0 mm 5 mps 678 mmHg 10%
    15:00 +41°C° 0 mm 5 mps 678 mmHg 9%
    16:00 +40°C° 0 mm 6 mps 678 mmHg 8%
    17:00 +40°C° 0 mm 6 mps 677 mmHg 7%
    18:00 +37°C° 0 mm 5 mps 677 mmHg 7%
    19:00 +34°C° 0 mm 4 mps 677 mmHg 8%
    20:00 +31°C° 0 mm 3 mps 677 mmHg 8%
    21:00 +30°C° 0 mm 3 mps 678 mmHg 9%
    22:00 +29°C° 0 mm 3 mps 678 mmHg 9%
    23:00 +29°C° 0 mm 3 mps 678 mmHg 10%

    Tomorrow, 22 November, Thursday

    Time Temperature Precipitation Wind Pressure Humidity
    00:00 +28°C° 0 mm 3 mps 678 mmHg 11%
    01:00 +27°C° 0 mm 3 mps 678 mmHg 12%
    02:00 +26°C° 0 mm 3 mps 677 mmHg 14%
    03:00 +25°C° 0 mm 3 mps 677 mmHg 15%
    04:00 +24°C° 0 mm 3 mps 677 mmHg 17%
    05:00 +22°C° 0 mm 3 mps 677 mmHg 19%
    06:00 +25°C° 0 mm 3 mps 678 mmHg 17%
    07:00 +27°C° 0 mm 3 mps 679 mmHg 15%
    08:00 +29°C° 0 mm 3 mps 679 mmHg 14%
    09:00 +31°C° 0 mm 3 mps 680 mmHg 14%
    10:00 +34°C° 0 mm 4 mps 680 mmHg 15%
    11:00 +36°C° 0 mm 4 mps 680 mmHg 16%
    12:00 +37°C° 0 mm 3 mps 679 mmHg 14%
    13:00 +38°C° 0 mm 2 mps 679 mmHg 12%
    14:00 +40°C° 0 mm 1 mps 679 mmHg 11%
    15:00 +40°C° 0 mm 1 mps 678 mmHg 10%
    16:00 +39°C° 0 mm 1 mps 678 mmHg 9%
    17:00 +39°C° 0 mm 2 mps 677 mmHg 8%
    18:00 +37°C° 0 mm 2 mps 677 mmHg 9%
    19:00 +35°C° 0 mm 2 mps 677 mmHg 11%
    20:00 +32°C° 0 mm 2 mps 677 mmHg 13%
    21:00 +31°C° 0 mm 2 mps 678 mmHg 19%
    22:00 +30°C° 0 mm 3 mps 678 mmHg 26%
    23:00 +30°C° 0 mm 4 mps 679 mmHg 33%

    Day after tomorrow, 23 November, Friday

    Time Temperature Precipitation Wind Pressure Humidity
    00:00 +28°C° 0 mm 5 mps 679 mmHg 39%
    01:00 +27°C° 0 mm 6 mps 679 mmHg 46%
    02:00 +26°C° 0 mm 7 mps 679 mmHg 52%
    03:00 +24°C° 0 mm 7 mps 679 mmHg 55%
    04:00 +24°C° 0 mm 6 mps 679 mmHg 59%
    05:00 +23°C° 0 mm 6 mps 679 mmHg 62%
    06:00 +23°C° 0 mm 6 mps 680 mmHg 62%
    07:00 +23°C° 0 mm 7 mps 681 mmHg 61%
    08:00 +23°C° 0 mm 7 mps 681 mmHg 61%
    09:00 +24°C° 0 mm 7 mps 681 mmHg 57%
    10:00 +26°C° 0 mm 7 mps 682 mmHg 53%
    11:00 +27°C° 0 mm 7 mps 682 mmHg 49%
    12:00 +29°C° 0 mm 7 mps 682 mmHg 46%
    13:00 +30°C° 0 mm 6 mps 681 mmHg 43%
    14:00 +32°C° 0 mm 6 mps 681 mmHg 39%
    15:00 +32°C° 0 mm 6 mps 680 mmHg 39%
    16:00 +32°C° 0 mm 5 mps 680 mmHg 40%
    17:00 +32°C° 0 mm 5 mps 679 mmHg 40%
    18:00 +30°C° 0.1 mm 4 mps 679 mmHg 44%
    19:00 +28°C° 0.1 mm 4 mps 680 mmHg 47%
    20:00 +27°C° 0.1 mm 4 mps 680 mmHg 51%
    21:00 +27°C° 0.5 mm 4 mps 681 mmHg 54%
    22:00 +26°C° 0.5 mm 4 mps 681 mmHg 56%
    23:00 +26°C° 0.5 mm 4 mps 682 mmHg 59%

    24 November, Saturday

    Time Temperature Precipitation Wind Pressure Humidity
    00:00 +25°C° 0.2 mm 4 mps 681 mmHg 61%
    01:00 +25°C° 0.2 mm 4 mps 680 mmHg 63%
    02:00 +25°C° 0.2 mm 4 mps 680 mmHg 64%
    03:00 +23°C° 0 mm 4 mps 680 mmHg 66%
    04:00 +22°C° 0 mm 4 mps 680 mmHg 68%
    05:00 +22°C° 0 mm 3 mps 680 mmHg 70%
    06:00 +23°C° 0 mm 4 mps 680 mmHg 66%
    07:00 +25°C° 0 mm 5 mps 681 mmHg 62%
    08:00 +26°C° 0 mm 5 mps 682 mmHg 58%
    09:00 +28°C° 0 mm 5 mps 682 mmHg 51%
    10:00 +30°C° 0 mm 5 mps 682 mmHg 44%
    11:00 +33°C° 0 mm 5 mps 683 mmHg 37%
    12:00 +34°C° 0 mm 4 mps 682 mmHg 32%
    13:00 +36°C° 0 mm 4 mps 681 mmHg 28%
    14:00 +37°C° 0 mm 3 mps 680 mmHg 23%
    15:00 +37°C° 0 mm 3 mps 680 mmHg 23%
    16:00 +36°C° 0 mm 3 mps 680 mmHg 22%
    17:00 +36°C° 0 mm 3 mps 679 mmHg 21%
    18:00 +35°C° 0 mm 3 mps 679 mmHg 23%
    19:00 +34°C° 0 mm 3 mps 679 mmHg 26%
    20:00 +31°C° 0 mm 3 mps 679 mmHg 28%
    21:00 +31°C° 0 mm 3 mps 680 mmHg 31%
    22:00 +30°C° 0 mm 3 mps 680 mmHg 33%
    23:00 +29°C° 0 mm 4 mps 680 mmHg 35%

    25 November, Sunday

    Time Temperature Precipitation Wind Pressure Humidity
    00:00 +29°C° 0 mm 4 mps 680 mmHg 39%
    01:00 +28°C° 0 mm 4 mps 680 mmHg 42%
    02:00 +27°C° 0 mm 4 mps 679 mmHg 45%
    03:00 +27°C° 0 mm 4 mps 679 mmHg 50%
    04:00 +26°C° 0 mm 4 mps 680 mmHg 55%
    05:00 +25°C° 0 mm 4 mps 680 mmHg 59%
    06:00 +27°C° 0 mm 4 mps 680 mmHg 55%
    07:00 +28°C° 0 mm 4 mps 681 mmHg 51%
    08:00 +29°C° 0 mm 5 mps 682 mmHg 47%
    09:00 +32°C° 0 mm 4 mps 682 mmHg 42%
    10:00 +34°C° 0 mm 4 mps 682 mmHg 36%
    11:00 +36°C° 0 mm 4 mps 682 mmHg 30%
    12:00 +37°C° 0 mm 4 mps 681 mmHg 27%
    13:00 +37°C° 0 mm 3 mps 680 mmHg 25%
    14:00 +38°C° 0 mm 3 mps 680 mmHg 22%
    15:00 +38°C° 0 mm 3 mps 679 mmHg 22%
    16:00 +37°C° 0 mm 2 mps 679 mmHg 22%
    17:00 +37°C° 0 mm 2 mps 678 mmHg 22%
    18:00 +36°C° 0 mm 2 mps 678 mmHg 24%
    19:00 +34°C° 0 mm 1 mps 678 mmHg 26%
    20:00 +33°C° 0 mm 1 mps 678 mmHg 28%
    21:00 +32°C° 0 mm 1 mps 678 mmHg 29%
    22:00 +31°C° 0 mm 1 mps 678 mmHg 30%
    23:00 +30°C° 0 mm 1 mps 678 mmHg 31%

    26 November, Monday

    Time Temperature Precipitation Wind Pressure Humidity
    00:00 +30°C° 0.1 mm 1 mps 678 mmHg 33%
    01:00 +29°C° 0.1 mm 2 mps 678 mmHg 34%
    02:00 +29°C° 0.1 mm 2 mps 678 mmHg 36%
    03:00 +28°C° 0 mm 2 mps 678 mmHg 39%
    04:00 +28°C° 0 mm 3 mps 678 mmHg 43%
    05:00 +27°C° 0 mm 3 mps 678 mmHg 46%
    06:00 +28°C° 0.1 mm 4 mps 678 mmHg 43%
    07:00 +29°C° 0.1 mm 5 mps 679 mmHg 40%
    08:00 +30°C° 0.1 mm 5 mps 679 mmHg 37%
    09:00 +33°C° 0 mm 5 mps 679 mmHg 33%
    10:00 +35°C° 0 mm 5 mps 679 mmHg 28%
    11:00 +37°C° 0 mm 4 mps 679 mmHg 24%
    12:00 +38°C° 0 mm 4 mps 679 mmHg 22%
    13:00 +39°C° 0 mm 3 mps 678 mmHg 21%
    14:00 +39°C° 0 mm 2 mps 677 mmHg 19%
    15:00 +39°C° 0 mm 3 mps 677 mmHg 19%
    16:00 +39°C° 0 mm 3 mps 676 mmHg 20%
    17:00 +38°C° 0 mm 3 mps 676 mmHg 20%
    18:00 +37°C° 0 mm 3 mps 676 mmHg 23%
    19:00 +36°C° 0 mm 4 mps 676 mmHg 26%
    20:00 +34°C° 0 mm 4 mps 676 mmHg 29%
    21:00 +33°C° 0.3 mm 3 mps 676 mmHg 32%
    22:00 +31°C° 0.3 mm 2 mps 676 mmHg 36%
    23:00 +30°C° 0.3 mm 2 mps 677 mmHg 39%
    Show more